UZB341 UZTT-HESH

Flight info

Callsign UZB341
Flight time N/A
Altitude 34000
Route DIBAD2A DIBAD N193 OGOLI T898 ZAMWO Z626 DARVA/N0460F340 B476 METKA L88 RASAM N199 EDATA N161 INDUR UN161 ALVAR/N0459F360 UN161 ERZ UL615 UTURI UA4 OTSOV UL615 SIV UA285 SELVI/N0453F350 UA285 MUT UA28 DOREN N131 EMEDA L13 STEPA L550 DATOK J981 NOVPA NOVPA2G
Aircraft A21N/M-SDE3FGHIRWY/LB1

Departure

Time 2026-04-14 13:33
Airport Tashkent International Airport (UZTT)

Arrival

Time N/A
Airport Sharm El Sheikh International Airport (HESH)
Time Latitude Longitude Altitude Speed Heading
2026-04-14 12:40 41.26303 69.27271 1425 ft 0 kts 351°
2026-04-14 13:19 41.26304 69.27271 1424 ft 0 kts 351°
2026-04-14 13:20 41.26306 69.27271 1424 ft 0 kts 351°
2026-04-14 13:20 41.26311 69.27270 1424 ft 0 kts 351°
2026-04-14 13:20 41.26316 69.27269 1424 ft 0 kts 348°
2026-04-14 13:20 41.26321 69.27266 1424 ft 0 kts 334°
2026-04-14 13:21 41.26326 69.27261 1424 ft 0 kts 317°
2026-04-14 13:21 41.26329 69.27254 1424 ft 1 kts 300°
2026-04-14 13:21 41.26333 69.27244 1424 ft 1 kts 287°
2026-04-14 13:21 41.26335 69.27230 1424 ft 1 kts 280°
2026-04-14 13:22 41.26335 69.27214 1424 ft 1 kts 268°
2026-04-14 13:22 41.26334 69.27195 1424 ft 2 kts 265°
2026-04-14 13:22 41.26332 69.27174 1424 ft 2 kts 263°
2026-04-14 13:22 41.26330 69.27150 1424 ft 2 kts 262°
2026-04-14 13:23 41.26327 69.27123 1424 ft 3 kts 261°
2026-04-14 13:23 41.26324 69.27094 1424 ft 3 kts 261°
2026-04-14 13:23 41.26320 69.27062 1424 ft 3 kts 262°
2026-04-14 13:23 41.26313 69.27023 1424 ft 4 kts 244°
2026-04-14 13:24 41.26288 69.27003 1424 ft 5 kts 175°
2026-04-14 13:24 41.26223 69.27059 1424 ft 6 kts 145°
2026-04-14 13:24 41.26188 69.27096 1424 ft 6 kts 140°
2026-04-14 13:25 41.26151 69.27138 1424 ft 7 kts 138°
2026-04-14 13:25 41.26111 69.27184 1424 ft 7 kts 138°
2026-04-14 13:26 41.25976 69.27344 1424 ft 9 kts 138°
2026-04-14 13:26 41.25925 69.27404 1424 ft 10 kts 139°
2026-04-14 13:26 41.25870 69.27467 1424 ft 10 kts 139°
2026-04-14 13:26 41.25813 69.27533 1424 ft 11 kts 135°
2026-04-14 13:27 41.25759 69.27609 1424 ft 11 kts 138°
2026-04-14 13:27 41.25697 69.27675 1424 ft 11 kts 141°
2026-04-14 13:27 41.25624 69.27693 1424 ft 11 kts 215°
2026-04-14 13:27 41.25598 69.27595 1424 ft 11 kts 260°
2026-04-14 13:28 41.25585 69.27491 1424 ft 11 kts 260°
2026-04-14 13:28 41.25572 69.27380 1424 ft 12 kts 261°
2026-04-14 13:28 41.25560 69.27268 1424 ft 12 kts 264°
2026-04-14 13:28 41.25550 69.27153 1424 ft 12 kts 262°
2026-04-14 13:29 41.25537 69.27039 1424 ft 12 kts 261°
2026-04-14 13:29 41.25523 69.26919 1424 ft 12 kts 261°
2026-04-14 13:29 41.25508 69.26800 1424 ft 13 kts 262°
2026-04-14 13:29 41.25495 69.26679 1424 ft 13 kts 262°
2026-04-14 13:30 41.25482 69.26553 1424 ft 14 kts 262°
2026-04-14 13:30 41.25467 69.26407 1424 ft 16 kts 262°
2026-04-14 13:30 41.25448 69.26243 1424 ft 18 kts 261°
2026-04-14 13:30 41.25429 69.26065 1425 ft 20 kts 262°
2026-04-14 13:31 41.25414 69.25871 1424 ft 20 kts 285°
2026-04-14 13:31 41.25529 69.25798 1424 ft 19 kts 355°
2026-04-14 13:31 41.25603 69.25902 1424 ft 16 kts 78°
2026-04-14 13:31 41.25613 69.25990 1424 ft 0 kts 81°
2026-04-14 13:32 41.25614 69.25995 1424 ft 2 kts 81°
2026-04-14 13:32 41.25626 69.26103 1424 ft 22 kts 81°
2026-04-14 13:32 41.25669 69.26502 1425 ft 71 kts 82°
2026-04-14 13:32 41.25771 69.27415 1425 ft 124 kts 82°
2026-04-14 13:33 41.25915 69.28754 1425 ft 169 kts 81°
2026-04-14 13:33 41.26092 69.30436 1677 ft 184 kts 81°
2026-04-14 13:33 41.26275 69.32127 2048 ft 191 kts 80°
2026-04-14 13:33 41.26504 69.33916 2416 ft 202 kts 79°
2026-04-14 13:34 41.27048 69.37577 3627 ft 206 kts 81°
2026-04-14 13:34 41.27233 69.39510 3988 ft 220 kts 85°
2026-04-14 13:34 41.27415 69.41621 4349 ft 236 kts 78°
2026-04-14 13:35 41.28184 69.43578 4706 ft 251 kts 43°
2026-04-14 13:35 41.29780 69.44593 5220 ft 263 kts
2026-04-14 13:35 41.31553 69.44183 5839 ft 268 kts 331°
2026-04-14 13:35 41.32927 69.42474 6278 ft 279 kts 298°
2026-04-14 13:36 41.33438 69.39932 6574 ft 292 kts 269°
2026-04-14 13:36 41.33358 69.37198 7048 ft 300 kts 263°
2026-04-14 13:36 41.33187 69.34425 7694 ft 302 kts 263°
2026-04-14 13:36 41.33033 69.31643 8348 ft 304 kts 264°
2026-04-14 13:37 41.32906 69.28847 9014 ft 305 kts 264°
2026-04-14 13:37 41.32793 69.25971 9641 ft 307 kts 265°
2026-04-14 13:37 41.32696 69.23128 10249 ft 309 kts 265°
2026-04-14 13:37 41.32601 69.20213 10519 ft 324 kts 265°
2026-04-14 13:38 41.32504 69.17099 10779 ft 338 kts 265°
2026-04-14 13:38 41.32409 69.13948 11180 ft 346 kts 265°
2026-04-14 13:38 41.32314 69.10710 11788 ft 348 kts 266°
2026-04-14 13:38 41.32219 69.07467 12431 ft 348 kts 266°
2026-04-14 13:39 41.32126 69.04269 13044 ft 349 kts 266°
2026-04-14 13:39 41.32028 69.00999 13653 ft 350 kts 266°
2026-04-14 13:39 41.31930 68.97732 14250 ft 351 kts 266°
2026-04-14 13:39 41.31832 68.94509 14805 ft 353 kts 266°
2026-04-14 13:40 41.31730 68.91219 15121 ft 362 kts 266°
2026-04-14 13:40 41.31624 68.87803 15568 ft 366 kts 266°
2026-04-14 13:40 41.31519 68.84434 16122 ft 367 kts 266°
2026-04-14 13:40 41.31414 68.81046 16645 ft 369 kts 266°
2026-04-14 13:41 41.31305 68.77600 17144 ft 371 kts 266°
2026-04-14 13:41 41.31195 68.74133 17633 ft 374 kts 266°
2026-04-14 13:41 41.31082 68.70626 18114 ft 376 kts 266°
2026-04-14 13:41 41.30967 68.67116 18366 ft 384 kts 266°
2026-04-14 13:42 41.30849 68.63536 18543 ft 394 kts 266°
2026-04-14 13:42 41.30725 68.59849 18734 ft 402 kts 266°
2026-04-14 13:42 41.30598 68.56054 19088 ft 406 kts 266°
2026-04-14 13:42 41.30469 68.52262 19528 ft 408 kts 266°
2026-04-14 13:43 41.30341 68.48501 19939 ft 410 kts 266°
2026-04-14 13:43 41.30209 68.44677 20336 ft 412 kts 266°
2026-04-14 13:43 41.30076 68.40873 20721 ft 414 kts 266°
2026-04-14 13:43 41.29939 68.36978 21106 ft 415 kts 266°
2026-04-14 13:44 41.29803 68.33136 21476 ft 417 kts 266°
2026-04-14 13:44 41.29668 68.29311 21841 ft 419 kts 266°
2026-04-14 13:44 41.29530 68.25401 22201 ft 421 kts 266°
2026-04-14 13:44 41.29387 68.21446 22553 ft 423 kts 266°
2026-04-14 13:45 41.29244 68.17512 22896 ft 424 kts 266°
2026-04-14 13:45 41.29099 68.13602 23226 ft 426 kts 266°
2026-04-14 13:45 41.28951 68.09644 23545 ft 428 kts 266°
2026-04-14 13:45 41.28802 68.05700 23852 ft 429 kts 266°
2026-04-14 13:46 41.28650 68.01728 24152 ft 431 kts 266°
2026-04-14 13:46 41.28539 67.97742 24436 ft 433 kts 269°
2026-04-14 13:46 41.28632 67.93808 24710 ft 435 kts 272°
2026-04-14 13:46 41.28962 67.89744 24985 ft 437 kts 277°
2026-04-14 13:47 41.29499 67.85783 25244 ft 440 kts 279°
2026-04-14 13:47 41.30112 67.81795 25364 ft 444 kts 280°
2026-04-14 13:47 41.30747 67.77743 25464 ft 449 kts 280°
2026-04-14 13:47 41.31396 67.73592 25560 ft 453 kts 280°
2026-04-14 13:48 41.32031 67.69514 25646 ft 457 kts 280°
2026-04-14 13:48 41.32685 67.65298 25731 ft 461 kts 280°
2026-04-14 13:48 41.33338 67.61070 25807 ft 464 kts 280°
2026-04-14 13:48 41.33986 67.56859 25875 ft 467 kts 280°
2026-04-14 13:49 41.34644 67.52570 25935 ft 470 kts 280°
2026-04-14 13:49 41.35299 67.48283 26041 ft 471 kts 280°
2026-04-14 13:49 41.35955 67.43981 26209 ft 471 kts 280°
2026-04-14 13:49 41.36604 67.39720 26537 ft 467 kts 280°
2026-04-14 13:50 41.37240 67.35533 26942 ft 461 kts 280°
2026-04-14 13:50 41.37881 67.31293 27243 ft 459 kts 279°
2026-04-14 13:50 41.38508 67.27135 27454 ft 458 kts 279°
2026-04-14 13:50 41.39133 67.22980 27643 ft 458 kts 279°
2026-04-14 13:51 41.39758 67.18814 27838 ft 457 kts 279°
2026-04-14 13:51 41.40377 67.14677 28029 ft 457 kts 279°
2026-04-14 13:51 41.41007 67.10462 28205 ft 457 kts 279°
2026-04-14 13:51 41.41621 67.06333 28364 ft 457 kts 279°
2026-04-14 13:52 41.42242 67.02158 28517 ft 457 kts 279°
2026-04-14 13:52 41.42856 66.98013 28666 ft 458 kts 279°
2026-04-14 13:52 41.43473 66.93826 28815 ft 458 kts 279°
2026-04-14 13:52 41.44087 66.89665 28973 ft 458 kts 279°
2026-04-14 13:53 41.44702 66.85473 29144 ft 457 kts 279°
2026-04-14 13:53 41.45305 66.81355 29313 ft 456 kts 279°
2026-04-14 13:53 41.45914 66.77184 29478 ft 456 kts 279°
2026-04-14 13:53 41.46517 66.73041 29637 ft 455 kts 279°
2026-04-14 13:54 41.47120 66.68892 29796 ft 455 kts 279°
2026-04-14 13:54 41.47648 66.64711 29948 ft 453 kts 276°
2026-04-14 13:54 41.48019 66.60503 30110 ft 452 kts 274°
2026-04-14 13:54 41.48230 66.56374 30381 ft 448 kts 271°
2026-04-14 13:55 41.48296 66.52220 30645 ft 444 kts 269°
2026-04-14 13:55 41.48312 66.48091 30899 ft 441 kts 269°
2026-04-14 13:55 41.48322 66.44061 31147 ft 439 kts 269°
2026-04-14 13:55 41.48329 66.39971 31401 ft 436 kts 269°
2026-04-14 13:56 41.48334 66.35938 31540 ft 436 kts 269°
2026-04-14 13:56 41.48341 66.27773 31591 ft 441 kts 268°
2026-04-14 13:57 41.48342 66.19551 31623 ft 445 kts 268°
2026-04-14 13:57 41.48340 66.11304 31808 ft 445 kts 268°
2026-04-14 13:57 41.48336 66.07178 31919 ft 444 kts 268°
2026-04-14 13:58 41.48331 66.03072 32021 ft 444 kts 268°
2026-04-14 13:58 41.48316 65.94926 32209 ft 443 kts 268°
2026-04-14 13:59 41.48294 65.86594 32387 ft 443 kts 268°
2026-04-14 13:59 41.48265 65.78355 32551 ft 442 kts 268°
2026-04-14 14:00 41.48187 65.70175 32697 ft 441 kts 268°
2026-04-14 14:00 41.48092 65.61972 32826 ft 441 kts 268°
2026-04-14 14:01 41.47993 65.53788 32942 ft 441 kts 268°
2026-04-14 14:01 41.47890 65.45652 33056 ft 440 kts 268°
2026-04-14 14:02 41.47781 65.37392 33159 ft 440 kts 268°
2026-04-14 14:02 41.47666 65.29221 33272 ft 439 kts 267°
2026-04-14 14:03 41.47548 65.21127 33383 ft 439 kts 267°
2026-04-14 14:03 41.47423 65.12989 33478 ft 439 kts 267°
2026-04-14 14:04 41.47292 65.04847 33569 ft 438 kts 267°
2026-04-14 14:04 41.47155 64.96799 33674 ft 437 kts 268°
2026-04-14 14:05 41.47011 64.88723 33815 ft 435 kts 268°
2026-04-14 14:05 41.46864 64.80663 33888 ft 433 kts 268°
2026-04-14 14:06 41.46713 64.72559 33891 ft 433 kts 268°
2026-04-14 14:06 41.46561 64.64651 33891 ft 433 kts 268°
2026-04-14 14:07 41.46401 64.56698 33891 ft 432 kts 268°
2026-04-14 14:07 41.46233 64.48716 33891 ft 433 kts 268°
2026-04-14 14:08 41.46059 64.40614 33892 ft 433 kts 268°
2026-04-14 14:08 41.45879 64.32590 33893 ft 433 kts 268°
2026-04-14 14:09 41.45694 64.24553 33892 ft 433 kts 268°
2026-04-14 14:09 41.45502 64.16498 33891 ft 433 kts 268°
2026-04-14 14:10 41.45310 64.08608 33892 ft 433 kts 268°
2026-04-14 14:10 41.45107 64.00534 33891 ft 433 kts 268°
2026-04-14 14:11 41.44900 63.92536 33892 ft 433 kts 268°
2026-04-14 14:11 41.44687 63.84482 33892 ft 433 kts 268°
2026-04-14 14:12 41.44468 63.76462 33891 ft 433 kts 268°
2026-04-14 14:12 41.44240 63.68341 33892 ft 433 kts 268°
2026-04-14 14:13 41.44006 63.60336 33891 ft 433 kts 268°
2026-04-14 14:13 41.43755 63.52237 33891 ft 433 kts 268°
2026-04-14 14:14 41.43502 63.44191 33892 ft 433 kts 268°
2026-04-14 14:14 41.43242 63.36132 33891 ft 433 kts 268°
2026-04-14 14:15 41.42976 63.28051 33892 ft 433 kts 267°
2026-04-14 14:15 41.42708 63.20066 33892 ft 433 kts 267°
2026-04-14 14:16 41.42433 63.12073 33892 ft 433 kts 267°
2026-04-14 14:16 41.42150 63.04039 33892 ft 431 kts 268°
2026-04-14 14:17 41.41717 62.92031 33892 ft 427 kts 268°
2026-04-14 14:17 41.41425 62.84098 33891 ft 427 kts 268°
2026-04-14 14:18 41.41132 62.76208 33889 ft 425 kts 268°
2026-04-14 14:18 41.40836 62.68412 33889 ft 426 kts 269°
2026-04-14 14:19 41.40528 62.60463 33887 ft 426 kts 268°
2026-04-14 14:19 41.40214 62.52531 33898 ft 426 kts 268°
2026-04-14 14:20 41.39917 62.44752 33910 ft 426 kts 269°
2026-04-14 14:20 41.39629 62.36958 33928 ft 425 kts 269°
2026-04-14 14:21 41.39330 62.29053 33942 ft 426 kts 268°
2026-04-14 14:21 41.39025 62.21180 33953 ft 425 kts 268°
2026-04-14 14:22 41.38714 62.13308 33959 ft 426 kts 268°
2026-04-14 14:22 41.38397 62.05460 33966 ft 425 kts 268°
2026-04-14 14:23 41.38074 61.97554 33969 ft 424 kts 268°
2026-04-14 14:23 41.37750 61.89765 33969 ft 425 kts 268°
2026-04-14 14:24 41.37419 61.81872 33970 ft 425 kts 268°
2026-04-14 14:24 41.37087 61.74185 33970 ft 425 kts 268°
2026-04-14 14:25 41.36741 61.66291 33969 ft 426 kts 268°
2026-04-14 14:25 41.36393 61.58403 33971 ft 425 kts 268°
2026-04-14 14:26 41.36042 61.50616 33971 ft 425 kts 268°
2026-04-14 14:26 41.35685 61.42838 33970 ft 424 kts 268°
2026-04-14 14:27 41.35323 61.35007 33971 ft 425 kts 268°
2026-04-14 14:27 41.34959 61.27131 33969 ft 425 kts 268°
2026-04-14 14:28 41.34585 61.19257 33970 ft 425 kts 268°
2026-04-14 14:28 41.34209 61.11379 33971 ft 424 kts 268°
2026-04-14 14:29 41.33829 61.03518 33971 ft 421 kts 267°
2026-04-14 14:29 41.33441 60.95728 33971 ft 418 kts 268°
2026-04-14 14:30 41.33054 60.88005 33972 ft 416 kts 267°
2026-04-14 14:30 41.32664 60.80322 33971 ft 416 kts 267°
2026-04-14 14:31 41.32263 60.72566 33969 ft 417 kts 267°
2026-04-14 14:31 41.31862 60.64886 33972 ft 417 kts 267°
2026-04-14 14:32 41.31454 60.57144 33970 ft 417 kts 267°
2026-04-14 14:32 41.31039 60.49387 33971 ft 417 kts 267°
2026-04-14 14:33 41.30840 60.41593 33971 ft 416 kts 271°
2026-04-14 14:33 41.31130 60.33870 33974 ft 416 kts 274°
2026-04-14 14:34 41.31690 60.22376 33970 ft 416 kts 274°
2026-04-14 14:35 41.32058 60.14755 33969 ft 416 kts 274°
2026-04-14 14:35 41.32429 60.06993 33970 ft 416 kts 274°
2026-04-14 14:36 41.32805 59.99273 33970 ft 417 kts 274°
2026-04-14 14:36 41.33181 59.91526 33970 ft 417 kts 274°
2026-04-14 14:37 41.33547 59.83846 33971 ft 417 kts 274°
2026-04-14 14:37 41.33910 59.76122 33969 ft 416 kts 274°
2026-04-14 14:38 41.34104 59.68464 33969 ft 416 kts 270°
2026-04-14 14:38 41.33744 59.60647 33970 ft 417 kts 265°
2026-04-14 14:39 41.33045 59.52955 33969 ft 417 kts 265°
2026-04-14 14:39 41.32327 59.45266 33970 ft 417 kts 264°
2026-04-14 14:40 41.31603 59.37570 33971 ft 417 kts 264°
2026-04-14 14:40 41.30869 59.29863 33970 ft 418 kts 264°
2026-04-14 14:41 41.30134 59.22195 33970 ft 418 kts 264°
2026-04-14 14:41 41.29393 59.14562 33970 ft 417 kts 264°
2026-04-14 14:42 41.28643 59.06856 33969 ft 417 kts 264°
2026-04-14 14:42 41.27898 58.99216 33969 ft 417 kts 263°
2026-04-14 14:43 41.27137 58.91484 33970 ft 417 kts 263°
2026-04-14 14:43 41.26372 58.83797 33971 ft 417 kts 263°
2026-04-14 14:44 41.25630 58.76395 33971 ft 418 kts 263°
2026-04-14 14:44 41.24853 58.68729 33971 ft 418 kts 263°
2026-04-14 14:45 41.24071 58.61034 33970 ft 417 kts 263°
2026-04-14 14:45 41.23285 58.53338 33971 ft 418 kts 263°
2026-04-14 14:46 41.22493 58.45646 33971 ft 418 kts 263°
2026-04-14 14:46 41.21703 58.38005 33972 ft 418 kts 263°
2026-04-14 14:47 41.20902 58.30336 33972 ft 418 kts 262°
2026-04-14 14:47 41.20103 58.22725 33970 ft 418 kts 262°
2026-04-14 14:48 41.19295 58.15068 33969 ft 418 kts 262°
2026-04-14 14:48 41.18482 58.07420 33970 ft 418 kts 262°
2026-04-14 14:49 41.17665 57.99788 33970 ft 418 kts 262°
2026-04-14 14:49 41.16841 57.92117 33970 ft 418 kts 262°
2026-04-14 14:50 41.16012 57.84461 33971 ft 417 kts 262°
2026-04-14 14:50 41.15184 57.76859 33971 ft 418 kts 262°
2026-04-14 14:51 41.14346 57.69209 33970 ft 418 kts 262°
2026-04-14 14:51 41.13501 57.61566 33970 ft 418 kts 262°
2026-04-14 14:52 41.12653 57.53915 33971 ft 418 kts 262°
2026-04-14 14:52 41.11798 57.46289 33971 ft 417 kts 262°
2026-04-14 14:53 41.10951 57.38755 33971 ft 418 kts 262°
2026-04-14 14:53 41.10089 57.31127 33971 ft 417 kts 262°
2026-04-14 14:54 41.09222 57.23500 33970 ft 418 kts 262°
2026-04-14 14:54 41.08345 57.15840 33971 ft 418 kts 262°
2026-04-14 14:55 41.07462 57.08201 33970 ft 418 kts 262°
2026-04-14 14:55 41.06577 57.00571 33972 ft 418 kts 262°
2026-04-14 14:56 41.05250 56.89190 33971 ft 416 kts 262°
2026-04-14 14:56 41.04355 56.81582 33971 ft 416 kts 262°
2026-04-14 14:57 41.03455 56.73961 33971 ft 417 kts 262°
2026-04-14 14:57 41.02551 56.66372 33971 ft 417 kts 262°
2026-04-14 14:58 41.01638 56.58760 33970 ft 418 kts 262°
2026-04-14 14:58 41.00864 56.51165 33971 ft 418 kts 265°
2026-04-14 14:59 41.00599 56.43406 33972 ft 418 kts 269°
2026-04-14 14:59 41.00505 56.35720 33971 ft 418 kts 269°
2026-04-14 15:00 41.00409 56.28046 33982 ft 418 kts 269°
2026-04-14 15:00 41.00309 56.20324 34002 ft 419 kts 269°
2026-04-14 15:01 41.00205 56.12604 34024 ft 418 kts 269°
2026-04-14 15:01 41.00095 56.04859 34043 ft 418 kts 269°
2026-04-14 15:02 40.99981 55.97123 34057 ft 418 kts 269°
2026-04-14 15:02 40.99860 55.89447 34068 ft 418 kts 269°
2026-04-14 15:03 40.99734 55.81729 34076 ft 419 kts 269°
2026-04-14 15:03 40.99611 55.74003 34079 ft 418 kts 269°
2026-04-14 15:04 40.99493 55.66310 34080 ft 419 kts 269°
2026-04-14 15:04 40.99371 55.58609 34080 ft 419 kts 269°
2026-04-14 15:05 40.99240 55.50864 34080 ft 419 kts 269°
2026-04-14 15:05 40.99104 55.43116 34081 ft 419 kts 269°
2026-04-14 15:06 40.98963 55.35379 34081 ft 419 kts 269°
2026-04-14 15:06 40.98818 55.27681 34081 ft 419 kts 268°
2026-04-14 15:07 40.98670 55.20112 34080 ft 419 kts 268°
2026-04-14 15:07 40.98515 55.12382 34080 ft 419 kts 268°
2026-04-14 15:08 40.98357 55.04762 34080 ft 420 kts 268°
2026-04-14 15:08 40.98187 54.96989 34079 ft 421 kts 268°
2026-04-14 15:09 40.98015 54.89279 34080 ft 421 kts 268°
2026-04-14 15:09 40.97832 54.81525 34081 ft 421 kts 268°
2026-04-14 15:10 40.97640 54.73756 34080 ft 421 kts 268°
2026-04-14 15:10 40.97446 54.65989 34081 ft 421 kts 268°
2026-04-14 15:11 40.97251 54.58381 34080 ft 421 kts 268°
2026-04-14 15:11 40.97046 54.50581 34080 ft 421 kts 268°
2026-04-14 15:12 40.96835 54.42818 34081 ft 421 kts 268°
2026-04-14 15:12 40.96619 54.35086 34094 ft 422 kts 268°
2026-04-14 15:13 40.96397 54.27258 34112 ft 421 kts 267°
2026-04-14 15:13 40.96167 54.19472 34136 ft 422 kts 267°
2026-04-14 15:14 40.95935 54.11693 34151 ft 421 kts 267°
2026-04-14 15:14 40.95698 54.03931 34160 ft 421 kts 267°
2026-04-14 15:15 40.95457 53.96193 34161 ft 422 kts 267°
2026-04-14 15:15 40.95210 53.88429 34163 ft 422 kts 267°
2026-04-14 15:16 40.94957 53.80673 34163 ft 422 kts 267°
2026-04-14 15:16 40.94700 53.72901 34164 ft 421 kts 267°
2026-04-14 15:17 40.94437 53.65151 34162 ft 421 kts 267°
2026-04-14 15:17 40.94172 53.57420 34163 ft 422 kts 267°
2026-04-14 15:18 40.93897 53.49681 34162 ft 422 kts 267°
2026-04-14 15:18 40.93617 53.41901 34163 ft 421 kts 267°
2026-04-14 15:19 40.93332 53.34110 34164 ft 422 kts 266°
2026-04-14 15:19 40.93047 53.26481 34163 ft 422 kts 266°
2026-04-14 15:20 40.92751 53.18691 34162 ft 421 kts 266°
2026-04-14 15:20 40.92451 53.10903 34162 ft 421 kts 266°
2026-04-14 15:21 40.92140 53.03151 34162 ft 422 kts 266°
2026-04-14 15:21 40.91821 52.95374 34162 ft 423 kts 266°
2026-04-14 15:22 40.91494 52.87597 34162 ft 423 kts 266°
2026-04-14 15:22 40.91164 52.79771 34162 ft 425 kts 266°
2026-04-14 15:23 40.90825 52.71923 34163 ft 426 kts 266°
2026-04-14 15:23 40.90451 52.64102 34164 ft 425 kts 265°
2026-04-14 15:24 40.89625 52.56323 34163 ft 426 kts 259°
2026-04-14 15:24 40.88438 52.48644 34163 ft 425 kts 259°
2026-04-14 15:25 40.87235 52.40963 34162 ft 425 kts 259°
2026-04-14 15:25 40.86031 52.33341 34164 ft 426 kts 258°
2026-04-14 15:26 40.84824 52.25734 34163 ft 426 kts 258°
2026-04-14 15:26 40.83620 52.18169 34164 ft 425 kts 258°
2026-04-14 15:27 40.82414 52.10622 34163 ft 426 kts 258°
2026-04-14 15:27 40.81160 52.02819 34163 ft 426 kts 258°
2026-04-14 15:28 40.79919 51.95134 34162 ft 426 kts 258°
2026-04-14 15:28 40.78674 51.87458 34163 ft 425 kts 258°
2026-04-14 15:29 40.77427 51.79810 34162 ft 426 kts 258°
2026-04-14 15:29 40.76171 51.72134 34162 ft 426 kts 258°
2026-04-14 15:30 40.74915 51.64484 34162 ft 426 kts 258°
2026-04-14 15:30 40.73659 51.56887 34162 ft 426 kts 258°
2026-04-14 15:31 40.72640 51.49178 34162 ft 425 kts 263°
2026-04-14 15:31 40.72171 51.41408 34161 ft 426 kts 266°
2026-04-14 15:32 40.71851 51.33544 34164 ft 426 kts 266°
2026-04-14 15:32 40.71536 51.25761 34162 ft 426 kts 266°
2026-04-14 15:33 40.71214 51.17902 34164 ft 426 kts 266°
2026-04-14 15:33 40.70882 51.10048 34162 ft 426 kts 266°
2026-04-14 15:34 40.70551 51.02253 34164 ft 424 kts 266°
2026-04-14 15:34 40.70215 50.94535 34162 ft 421 kts 267°
2026-04-14 15:35 40.69881 50.86869 34163 ft 419 kts 267°
2026-04-14 15:35 40.69537 50.79161 34163 ft 418 kts 267°
2026-04-14 15:36 40.69191 50.71471 34160 ft 417 kts 267°
2026-04-14 15:36 40.68843 50.63835 34160 ft 417 kts 267°
2026-04-14 15:37 40.68488 50.56169 34161 ft 418 kts 267°
2026-04-14 15:37 40.68126 50.48509 34159 ft 418 kts 267°
2026-04-14 15:38 40.67758 50.40842 34162 ft 418 kts 267°
2026-04-14 15:38 40.67381 50.33154 34164 ft 418 kts 266°
2026-04-14 15:39 40.67007 50.25528 34162 ft 418 kts 266°
2026-04-14 15:39 40.66623 50.17850 34163 ft 418 kts 266°
2026-04-14 15:40 40.66236 50.10184 34161 ft 418 kts 266°
2026-04-14 15:40 40.65844 50.02539 34163 ft 418 kts 266°
2026-04-14 15:41 40.65444 49.94875 34162 ft 419 kts 266°
2026-04-14 15:41 40.65051 49.87371 34163 ft 417 kts 266°
2026-04-14 15:42 40.64645 49.79740 34161 ft 418 kts 266°
2026-04-14 15:42 40.64239 49.72210 34161 ft 418 kts 266°
2026-04-14 15:43 40.63823 49.64576 34162 ft 417 kts 266°
2026-04-14 15:43 40.63402 49.56982 34161 ft 418 kts 266°
2026-04-14 15:44 40.62974 49.49321 34163 ft 417 kts 266°
2026-04-14 15:44 40.62540 49.41680 34162 ft 418 kts 266°
2026-04-14 15:45 40.62103 49.34036 34163 ft 418 kts 265°
2026-04-14 15:45 40.61656 49.26367 34161 ft 419 kts 265°
2026-04-14 15:46 40.61250 49.18676 34162 ft 418 kts 268°
2026-04-14 15:46 40.61096 49.11035 34161 ft 416 kts 269°
2026-04-14 15:47 40.60950 49.03428 34160 ft 415 kts 269°
2026-04-14 15:47 40.60797 48.95786 34163 ft 414 kts 269°
2026-04-14 15:48 40.60645 48.88320 34162 ft 412 kts 269°
2026-04-14 15:48 40.60486 48.80754 34162 ft 412 kts 269°
2026-04-14 15:49 40.60323 48.73201 34161 ft 412 kts 269°
2026-04-14 15:49 40.60155 48.65596 34162 ft 412 kts 269°
2026-04-14 15:50 40.59980 48.58153 34164 ft 412 kts 269°
2026-04-14 15:50 40.59800 48.50569 34161 ft 412 kts 269°
2026-04-14 15:51 40.59624 48.43131 34162 ft 412 kts 269°
2026-04-14 15:51 40.59433 48.35583 34160 ft 413 kts 269°
2026-04-14 15:52 40.59238 48.28038 34161 ft 412 kts 269°
2026-04-14 15:52 40.59038 48.20452 34163 ft 412 kts 269°
2026-04-14 15:53 40.58839 48.12970 34163 ft 413 kts 268°
2026-04-14 15:53 40.58628 48.05329 34161 ft 411 kts 269°
2026-04-14 15:54 40.58395 47.94010 34163 ft 412 kts 271°
2026-04-14 15:55 40.58622 47.86427 34166 ft 413 kts 272°
2026-04-14 15:55 40.58860 47.79006 34169 ft 413 kts 272°
2026-04-14 15:56 40.59104 47.71418 34176 ft 413 kts 273°
2026-04-14 15:56 40.59338 47.63938 34180 ft 412 kts 272°
2026-04-14 15:57 40.59569 47.56401 34183 ft 412 kts 272°
2026-04-14 15:57 40.59794 47.48878 34187 ft 412 kts 272°
2026-04-14 15:58 40.60021 47.41274 34187 ft 412 kts 273°
2026-04-14 15:58 40.60238 47.33733 34184 ft 412 kts 272°
2026-04-14 15:59 40.60446 47.26242 34182 ft 412 kts 271°
2026-04-14 15:59 40.60342 47.18709 34181 ft 412 kts 267°
2026-04-14 16:00 40.59684 47.11203 34168 ft 412 kts 262°
2026-04-14 16:00 40.58697 47.03726 34156 ft 413 kts 262°
2026-04-14 16:01 40.57701 46.96270 34144 ft 413 kts 261°
2026-04-14 16:01 40.56697 46.88805 34139 ft 414 kts 261°
2026-04-14 16:02 40.55698 46.81414 34137 ft 414 kts 261°
2026-04-14 16:02 40.54681 46.73976 34136 ft 415 kts 261°
2026-04-14 16:03 40.53654 46.66509 34136 ft 415 kts 260°
2026-04-14 16:03 40.52620 46.59022 34136 ft 414 kts 261°
2026-04-14 16:04 40.51580 46.51525 34137 ft 414 kts 260°
2026-04-14 16:04 40.50541 46.44065 34134 ft 414 kts 261°
2026-04-14 16:05 40.49511 46.36691 34136 ft 414 kts 260°
2026-04-14 16:05 40.48489 46.29436 34137 ft 414 kts 260°
2026-04-14 16:06 40.47446 46.22033 34137 ft 415 kts 260°
2026-04-14 16:06 40.46394 46.14611 34137 ft 414 kts 260°
2026-04-14 16:07 40.45336 46.07183 34136 ft 414 kts 260°
2026-04-14 16:07 40.44268 45.99726 34136 ft 414 kts 260°
2026-04-14 16:08 40.43195 45.92276 34137 ft 414 kts 260°
2026-04-14 16:08 40.42132 45.84919 34136 ft 414 kts 260°
2026-04-14 16:09 40.41048 45.77458 34137 ft 414 kts 260°
2026-04-14 16:09 40.39972 45.70088 34141 ft 414 kts 260°
2026-04-14 16:10 40.38885 45.62640 34145 ft 413 kts 261°
2026-04-14 16:10 40.37887 45.55224 34150 ft 414 kts 261°
2026-04-14 16:11 40.36887 45.47764 34157 ft 414 kts 261°
2026-04-14 16:11 40.35891 45.40408 34166 ft 414 kts 261°
2026-04-14 16:12 40.34882 45.33003 34177 ft 414 kts 260°
2026-04-14 16:12 40.33870 45.25617 34182 ft 414 kts 260°
2026-04-14 16:13 40.32845 45.18175 34186 ft 414 kts 260°
2026-04-14 16:13 40.31821 45.10774 34188 ft 414 kts 260°
2026-04-14 16:14 40.30787 45.03316 34188 ft 413 kts 259°
2026-04-14 16:14 40.29751 44.95891 34190 ft 412 kts 259°
2026-04-14 16:15 40.28715 44.88511 34189 ft 411 kts 258°
2026-04-14 16:15 40.27677 44.81183 34189 ft 410 kts 259°
2026-04-14 16:16 40.26624 44.73782 34188 ft 411 kts 259°
2026-04-14 16:16 40.25576 44.66444 34188 ft 411 kts 259°
2026-04-14 16:17 40.24538 44.59191 34188 ft 411 kts 259°
2026-04-14 16:17 40.23518 44.51831 34186 ft 411 kts 259°
2026-04-14 16:18 40.22526 44.44544 34189 ft 410 kts 259°
2026-04-14 16:18 40.21516 44.37183 34189 ft 410 kts 259°
2026-04-14 16:19 40.20514 44.29915 34188 ft 410 kts 259°
2026-04-14 16:19 40.19499 44.22583 34188 ft 410 kts 259°
2026-04-14 16:20 40.18477 44.15237 34186 ft 410 kts 259°
2026-04-14 16:20 40.17454 44.07922 34190 ft 411 kts 258°
2026-04-14 16:21 40.16420 44.00574 34195 ft 410 kts 259°
2026-04-14 16:21 40.15398 43.93344 34202 ft 411 kts 258°
2026-04-14 16:22 40.14351 43.86006 34205 ft 411 kts 258°
2026-04-14 16:22 40.13307 43.78663 34213 ft 411 kts 259°
2026-04-14 16:23 40.12268 43.71431 34215 ft 410 kts 259°
2026-04-14 16:23 40.11459 43.64037 34216 ft 411 kts 263°
2026-04-14 16:24 40.11046 43.56754 34216 ft 411 kts 264°
2026-04-14 16:24 40.10642 43.49274 34215 ft 413 kts 264°
2026-04-14 16:25 40.10236 43.41807 34216 ft 412 kts 265°
2026-04-14 16:25 40.09832 43.34446 34217 ft 411 kts 264°